#timestamp,LO_Frequency,Hit,StdDev 
1502370015.2,286047001.9,N,1.2
1502370035.0,286047001.8,N,1.2
1502370035.9,286047001.8,N,1.2
1502370055.8,286047002.1,N,1.2
1502370075.6,286047002.4,N,1.2
1502370095.4,286047000.1,N,1.2
1502370115.3,286046999.8,N,1.2
1502370135.1,286047000.1,N,1.2
1502370155.9,286047001.2,N,1.1
1502370175.7,286046998.7,N,1.2
1502370195.5,286046999.0,N,1.3
1502370215.4,286046999.1,N,1.3
1502370235.2,286046999.1,N,1.3
1502370255.0,286046996.6,N,1.5
1502370255.9,286046996.6,N,1.7
1502370275.8,286046996.9,N,1.8
1502370295.6,286046996.9,N,1.8
1502370315.5,286046999.0,N,1.8
1502370335.3,286046997.4,N,1.8
1502370355.1,286046997.3,N,1.9
1502370375.9,286046997.5,N,1.9
1502370395.7,286046995.4,N,2.1
1502370415.6,286046998.0,N,2.1
1502370435.4,286046995.1,N,2.2
1502370455.2,286046995.5,N,2.3
1502370475.1,286046995.6,N,2.4
1502370476.0,286046995.6,N,2.4
1502370495.8,286046994.9,N,2.5
1502370515.7,286046997.8,N,2.4
1502370535.5,286046995.4,N,2.3
1502370555.3,286046995.9,N,2.3
1502370575.2,286046996.0,N,2.2
1502370595.0,286046995.6,N,2.1
1502370595.9,286046995.6,N,2.0
1502370615.7,286046996.2,N,1.7
1502370635.6,286046995.7,N,1.7
1502370655.4,286046996.0,N,1.6
1502370675.3,286046995.9,N,1.5
1502370695.1,286046996.0,N,1.3
1502370715.8,286046993.5,Y,0.0
1502370735.7,286046999.1,P,1.2
1502370755.5,286046996.9,N,1.1
1502370775.4,286046996.5,P,1.1
1502370795.2,286046997.1,N,0.9
1502370815.0,286046997.3,N,0.9
1502370815.9,286046997.3,Y,0.0
1502370835.8,286047000.8,P,1.8
1502370855.6,286046998.5,N,1.5
1502370875.5,286046998.7,N,1.3
1502370925.3,286047001.1,E,nan
1502370935.3,286046999.0,N,0.0
1502370955.1,286046999.1,P,0.1
1502370956.0,286046999.1,P,0.0
1502370975.8,286046997.1,Y,0.0
1502370995.7,286046999.2,P,0.1
1502371015.5,286046998.6,P,0.3
1502371035.3,286046998.3,P,0.4
1502371055.2,286046999.4,N,0.4
1502371075.0,286046999.4,N,0.4
1502371075.9,286046999.4,N,0.4
1502371095.8,286046999.0,N,0.4
1502371115.6,286046999.1,N,0.4
1502371135.4,286046999.2,N,0.3
1502371155.3,286046997.0,Y,0.0
1502371175.1,286047001.1,P,1.0
1502371195.9,286046998.9,N,1.0
1502371215.7,286046999.4,N,0.9
1502371235.5,286046999.3,N,0.8
1502371255.4,286047001.1,N,0.9
1502371275.2,286046998.3,N,1.0
1502371295.1,286046999.1,N,1.0
1502371296.0,286046999.1,N,0.9
1502371315.8,286046998.9,N,0.9
1502371335.6,286046999.0,N,0.9
1502371355.5,286046999.2,N,0.8
1502371375.3,286046998.9,N,0.8
1502371395.2,286046999.3,N,0.8
1502371415.9,286046999.4,N,0.7
1502371435.7,286046999.4,N,0.7
1502371455.6,286046998.4,N,0.7
1502371475.4,286046999.6,N,0.7
1502371495.2,286046996.5,Y,0.0
1502371515.1,286046998.4,P,0.5
1502371516.0,286046998.4,P,0.4
1502371535.8,286046998.7,P,0.4
1502371555.7,286047000.5,N,0.8
1502371575.5,286046998.3,N,0.8
1502371595.4,286046998.9,N,0.7
1502371615.2,286046996.6,Y,0.0
1502371635.0,286046999.4,P,0.2
1502371635.9,286046999.4,N,0.2
1502371655.8,286046999.3,P,0.2
1502371675.6,286046998.6,Y,0.0
1502371695.5,286047001.0,P,0.9
1502371715.3,286047001.0,N,0.8
1502371735.1,286682706.0,P,275268.6
1502371755.9,286047000.9,N,254282.2
1502371775.7,286047000.6,N,236913.5
1502371795.6,286047000.7,N,222450.6
1502371815.4,286047000.7,N,210239.8
1502371835.2,286047001.0,N,199782.9
1502371855.1,286046998.3,N,190711.7
1502371856.0,286046998.3,N,182752.6
1502371875.8,286046998.8,N,175699.9
1502371895.7,286046998.8,N,169396.2
1502371915.5,286046998.4,N,163719.4
1502371935.3,286046999.3,N,158573.0
1502371955.2,286046998.9,N,153880.0
1502371975.0,286046998.4,N,149578.0
1502371975.9,286046998.4,N,145615.8
1502371995.8,286046998.9,N,141951.3
1502372015.6,286046999.5,N,138549.0
1502372035.4,286046996.6,N,135379.4
1502372055.3,286046999.2,N,132417.0
1502372075.1,286046998.4,N,129640.4
1502372095.8,286046998.8,N,127030.9
1502372115.7,286046998.4,N,124572.6
1502372135.5,286046998.9,N,122251.3
1502372155.4,286046999.3,N,120054.9
1502372175.2,286046998.1,N,117972.5
1502372195.0,286047000.6,N,115994.6
1502372195.9,286047000.6,N,114112.9
1502372215.8,286046998.3,N,114112.9
1502372235.6,286046998.5,N,114112.9
1502372255.5,286046998.1,N,114112.9
1502372275.3,286046998.3,N,1.0
1502372295.1,286046998.4,N,1.0
1502372315.9,286046998.8,N,1.0
1502372335.7,286047001.0,N,1.0
1502372355.6,286046999.7,N,0.9
1502372375.4,286046999.7,N,0.9
1502372395.2,286047000.1,N,0.9
1502372415.1,286047000.6,N,0.9
1502372416.0,286047000.6,N,1.0
1502372435.8,286047000.8,N,1.0
1502372455.7,286046998.4,N,1.0
1502372475.5,286047000.7,N,1.0
1502372495.3,286047000.8,N,1.1
1502372515.2,286046998.5,N,1.1
1502372535.0,286047000.4,N,1.1
1502372535.9,286047000.4,N,1.1
1502372555.8,286047000.3,N,1.1
1502372575.6,286047000.6,N,1.0
1502372595.4,286046999.9,N,1.0
1502372615.3,286047000.0,N,1.0
1502372635.1,286047000.0,N,1.0
1502372655.9,286047000.6,N,1.0
1502372675.7,286046999.9,N,1.0
1502372695.5,286047000.0,N,1.0
1502372715.4,286046999.7,N,0.9
1502372735.2,286046999.9,N,0.9
1502372755.1,286047000.1,N,0.9
1502372756.0,286047000.1,N,0.8
1502372775.8,286047000.6,N,0.8
1502372795.6,286047000.0,N,0.8
1502372815.5,286047000.6,N,0.7
1502372835.3,286047000.7,N,0.6
1502372855.2,286046999.8,N,0.6
1502372875.9,286047002.7,Y,0.0
1502372895.7,286047002.8,P,1.3
1502372915.6,286047000.1,N,1.3
1502372935.4,286046999.7,N,1.2
1502372955.3,286047001.9,N,1.2
1502372975.1,286047001.6,N,1.1
1502372976.0,286047001.6,N,1.1
1502372995.8,286047001.4,N,1.0
1502373015.7,286047004.0,Y,0.0
1502373035.5,286047002.4,P,0.6
1502373055.4,286047002.3,P,0.6
1502373075.2,286047000.5,N,0.8
1502373095.0,286047000.6,N,0.8
1502373095.9,286047000.6,N,0.8
1502373115.8,286046998.6,N,1.2
1502373135.6,286047001.0,N,1.1
1502373155.4,286047000.1,N,1.1
1502373175.3,286047000.6,N,1.0
1502373195.1,286047000.6,N,1.0
1502373215.9,286047000.9,N,0.9
1502373235.7,286047000.5,N,0.9
1502373255.5,286047000.7,N,0.9
1502373275.4,286047000.4,N,0.8
1502373295.2,286047000.0,N,0.8
1502373315.1,286047000.1,N,0.8
1502373316.0,286047000.1,N,0.8
1502373335.8,286047000.2,N,0.8
1502373355.6,286047002.8,Y,0.0
1502373375.5,286046999.8,P,0.4
1502373395.3,286047002.7,P,1.2
1502373415.2,286047002.8,N,1.3
1502373435.9,286047002.5,N,1.2
1502373455.7,286047002.2,N,1.1
1502373475.6,286046999.7,N,1.3
1502373495.4,286047000.2,N,1.3
1502373515.3,286047002.7,N,1.3
1502373535.1,286047002.2,N,1.2
1502373536.0,286047002.2,N,1.2
1502373555.8,286047002.2,N,1.2
1502373575.7,286047002.0,N,1.1
1502373595.5,286047001.9,N,1.1
